[[{"header":{"parameterUnit":"m.s-1","parameterCategory":1,"la1":30.2991,"la2":30.254,"lo1":-89.0895,"lo2":-89.0444,"dy":0.0017,"dx":0.0017,"nx":28,"ny":28,"refTime":"2024-04-03T21:00:00:Z","depth":0,"parameterNumber":2,"parameterNumberName":"U-component_of_WINDS"},"data":[0,0,0,0,0,0,0,0,0,0,0,0,0,0,0,0,0,0,0,0,0,0,0,0,0,0,0,0,0,0,0,0,0,0,0,0,0,0,0,0,0,0,0,0,0,0,0,0,0,0,0,0,0,0,0,0,0,0,6.8395,6.8396,0,6.852,6.8521,6.8523,6.8453,6.845,6.8447,6.8443,6.8571,6.8577,6.8584,0,0,0,0,0,0,0,0,0,0,0,0,0,6.8097,6.8103,6.8395,6.8396,6.8398,6.852,6.8521,6.8523,6.8454,6.845,6.8446,6.8442,6.8569,6.8577,6.8584,0,0,0,0,0,0,0,0,0,0,0,0,0,6.8225,6.8105,6.8395,6.8378,6.8378,6.8519,6.8521,6.8524,6.8455,6.845,6.8445,6.844,6.8566,6.8576,6.8586,6.875,0,0,6.8616,6.862,0,0,0,0,0,0,0,0,6.8217,6.8236,6.8379,6.838,6.838,6.8466,6.8463,6.86,6.8456,6.8426,6.8443,6.8437,6.854,6.8552,6.8587,6.8756,6.8761,6.8617,6.8623,6.8627,6.863,0,0,0,0,0,0,0,6.8209,6.823,6.8444,6.8381,6.8382,6.8365,6.8377,6.8489,6.851,6.8428,6.8423,6.8439,6.8539,6.8577,6.8589,6.8763,6.8616,6.8625,6.8631,6.8635,6.9075,6.9081,0,0,0,0,0,0,6.8201,6.8223,6.844,6.8448,6.8284,6.8374,6.8388,6.8443,6.8509,6.8514,6.8443,6.8435,6.8563,6.8578,6.8593,6.879,6.8627,6.8636,6.8642,6.9069,6.9076,6.9083,0,0,0,0,0,0,6.8195,6.8221,6.8435,6.8334,6.836,6.8385,6.8447,6.8449,6.8486,6.852,6.8524,6.8478,6.8559,6.8579,6.8712,6.8794,6.8641,6.865,6.9063,6.9072,6.9079,6.9186,0,0,0,0,0,0,6.8187,6.8219,6.8282,6.8336,6.8366,6.8552,6.8452,6.8455,6.8504,6.8494,6.8554,6.8559,6.8557,6.8697,6.8722,6.8805,6.8657,6.9055,6.9067,6.9077,6.9175,6.9197,6.9216,0,0,0,0,0,6.8176,6.8306,6.8285,6.8312,6.8445,6.8557,6.8574,6.8569,6.8511,6.8574,6.8596,6.8557,6.8781,6.8712,6.8738,6.8826,6.905,6.9063,6.9076,6.9166,6.9193,6.9216,0,0,0,0,0,0,6.826,6.8313,6.829,6.8442,6.8496,6.8545,6.8624,6.8597,6.8668,6.8656,6.8647,6.8661,6.8799,6.8826,6.8747,6.8989,6.8907,6.8926,6.8966,6.8992,6.9012,6.9002,6.8666,0,0,0,0,0,6.8297,6.8383,6.8425,6.8555,6.8583,6.8599,6.8648,6.864,6.8694,6.8717,6.8748,6.8803,6.8886,6.894,6.9018,6.9179,6.9191,6.9253,6.9273,6.929,6.9306,6.9393,6.9421,6.9125,6.9125,6.9125,0,0,6.8372,6.8412,6.8467,6.8573,6.8613,6.8703,6.8619,6.8717,6.8784,6.8731,6.8858,6.8884,6.8945,6.9092,6.9159,6.9119,6.9391,6.9306,6.9319,6.9326,6.941,6.9438,6.9463,6.9134,6.9132,6.9131,0,0,6.8556,6.8595,6.8708,6.875,6.8813,6.8823,6.8851,6.8905,6.892,6.9047,6.901,6.909,6.9232,6.9277,6.9319,6.9522,6.9489,6.9548,6.9654,6.9739,6.9762,6.9783,6.9856,6.9882,6.9564,6.9564,6.9564,0,6.8642,6.8776,6.8769,6.8871,6.8919,6.8877,6.8991,6.9033,6.9118,6.9152,6.9106,6.9285,6.9322,6.948,6.953,6.9565,6.9596,6.954,6.976,6.978,6.9799,6.9868,6.9896,6.9571,6.957,6.9569,6.9569,0,6.8879,6.8973,6.9057,6.914,6.9198,6.9306,6.9315,6.9374,6.9362,6.9377,6.9508,6.9552,6.9639,6.9676,6.9664,6.9833,6.9806,6.976,6.9677,6.9835,6.9899,6.9926,6.958,6.9578,6.9576,6.9574,0,0,6.9118,6.9198,6.9229,6.9266,6.9333,6.9405,6.9512,6.9597,6.9648,6.9708,6.9797,6.992,6.9879,6.9926,6.9919,6.9994,7.0153,6.994,6.9941,6.9977,7.0342,7.0375,7.0406,7.0132,7.0137,7.0141,7.0336,0,6.9307,6.9492,6.949,6.9662,6.9749,6.971,6.9803,6.9854,6.9872,6.9948,6.9968,7.0055,6.9994,7.0022,7.0095,7.0118,7.0226,7.0104,7.0214,7.0218,7.02,7.0439,7.0475,7.0657,7.0362,7.0366,7.0369,0,6.955,6.962,6.9801,6.9855,6.9892,6.9975,7.0053,7.0127,7.0184,7.0192,7.0246,7.0228,7.0336,7.0251,7.0401,7.0318,7.0363,7.0382,7.0389,7.0398,7.0303,7.0455,7.0715,7.0742,7.0409,7.0406,7.0403,0,6.9707,6.9845,6.9971,7.0005,7.0072,7.0132,7.0162,7.0215,7.0267,7.0335,7.0369,7.0449,7.0493,7.0556,7.056,7.0498,7.0712,7.0627,7.0721,7.0721,7.0766,7.0763,7.1037,7.0797,7.0797,7.0796,7.0796,0,6.9917,7.0029,7.0043,7.012,7.0245,7.0242,7.0365,7.0391,7.0438,7.052,7.0492,7.057,7.0571,7.0651,7.0655,7.0778,7.0798,7.0808,7.0807,7.081,7.0809,7.0839,7.0826,7.0803,7.0802,7.08,7.0799,0,7.0112,7.0125,7.0261,7.0314,7.033,7.0419,7.0465,7.0539,7.0554,7.0659,7.0683,7.0708,7.08,7.0811,7.0918,7.0921,7.107,7.1056,7.1051,7.1048,7.1142,7.1133,7.1443,7.1484,7.1218,7.1221,7.1223,0,7.0245,7.033,7.0393,7.0446,7.048,7.0566,7.0619,7.0619,7.0675,7.0748,7.0814,7.0903,7.0975,7.1124,7.1152,7.1234,7.1222,7.1326,7.1234,7.1234,7.1223,7.1218,7.1227,7.1343,7.1346,7.1348,7.135,0,7.0479,7.0482,7.0559,7.064,7.0703,7.0767,7.0826,7.0871,7.0879,7.0943,7.1038,7.1093,7.1204,7.1293,7.1375,7.1406,7.138,7.1379,7.1405,7.1408,7.1401,7.1406,7.1098,7.1371,7.1369,7.1368,7.1367,7.1366,7.0647,7.0721,7.0777,7.0865,7.0909,7.0966,7.1038,7.1063,7.1142,7.1232,7.1227,7.1331,7.1388,7.1494,7.1532,7.1614,7.1579,7.1617,7.1627,7.1636,7.1645,7.1389,7.1629,7.1628,7.1627,7.1627,7.1627,0,7.088,7.0914,7.0994,7.1079,7.1147,7.1117,7.1182,7.1241,7.1333,7.1388,7.1459,7.1568,7.1655,7.169,7.1775,7.1834,7.1824,7.1856,7.1851,7.1859,7.1671,7.164,7.1863,7.1863,7.1863,7.1863,7.1863,7.1863,7.1009,7.1133,7.1143,7.129,7.1323,7.1425,7.1464,7.1516,7.156,7.1683,7.1755,7.1777,7.1825,7.1913,7.1992,7.2,7.2033,7.207,7.2073,7.1896,7.1872,7.185,7.182,7.2077,7.2078,7.2254,7.2256,7.2257]},{"header":{"parameterUnit":"m.s-1","parameterCategory":1,"la1":30.2991,"la2":30.254,"lo1":-89.0895,"lo2":-89.0444,"dy":0.0017,"dx":0.0017,"nx":28,"ny":28,"refTime":"2024-04-03T21:00:00:Z","depth":0,"parameterNumber":3,"parameterNumberName":"V-component_of_WINDS"},"data":[0,0,0,0,0,0,0,0,0,0,0,0,0,0,0,0,0,0,0,0,0,0,0,0,0,0,0,0,0,0,0,0,0,0,0,0,0,0,0,0,0,0,0,0,0,0,0,0,0,0,0,0,0,0,0,0,0,0,-1.9458,-1.946,0,-1.9561,-1.9562,-1.9563,-1.9614,-1.9615,-1.9615,-1.9615,-1.9718,-1.972,-1.9723,0,0,0,0,0,0,0,0,0,0,0,0,0,-1.9307,-1.931,-1.9458,-1.946,-1.9461,-1.956,-1.9562,-1.9563,-1.9614,-1.9615,-1.9615,-1.9615,-1.9717,-1.972,-1.9723,0,0,0,0,0,0,0,0,0,0,0,0,0,-1.9387,-1.9311,-1.9458,-1.9499,-1.9503,-1.956,-1.9562,-1.9564,-1.9614,-1.9615,-1.9615,-1.9615,-1.9716,-1.972,-1.9724,-1.9748,0,0,-1.9736,-1.9738,0,0,0,0,0,0,0,0,-1.9383,-1.9393,-1.9491,-1.9496,-1.9501,-1.9575,-1.9546,-1.9625,-1.9614,-1.9572,-1.9615,-1.9615,-1.967,-1.9678,-1.9697,-1.9753,-1.9757,-1.9736,-1.9739,-1.9741,-1.9742,0,0,0,0,0,0,0,-1.9377,-1.9389,-1.9499,-1.9493,-1.9499,-1.9511,-1.9523,-1.9562,-1.9619,-1.9576,-1.958,-1.9591,-1.9673,-1.9693,-1.97,-1.9758,-1.9736,-1.974,-1.9742,-1.9744,-1.984,-1.984,0,0,0,0,0,0,-1.9365,-1.9384,-1.9496,-1.9502,-1.9441,-1.9514,-1.9527,-1.9551,-1.9619,-1.963,-1.9591,-1.9593,-1.9686,-1.9695,-1.9703,-1.9737,-1.9741,-1.9744,-1.9747,-1.984,-1.984,-1.984,0,0,0,0,0,0,-1.9362,-1.9375,-1.9491,-1.9444,-1.946,-1.9517,-1.9543,-1.9553,-1.9573,-1.9631,-1.9641,-1.9601,-1.9686,-1.9698,-1.9737,-1.9741,-1.9746,-1.975,-1.984,-1.984,-1.984,-1.9803,0,0,0,0,0,0,-1.9357,-1.9373,-1.9383,-1.9444,-1.9462,-1.9523,-1.9544,-1.9555,-1.958,-1.9584,-1.9643,-1.9653,-1.9687,-1.973,-1.9741,-1.9747,-1.9753,-1.984,-1.984,-1.984,-1.9804,-1.9802,-1.98,0,0,0,0,0,-1.9352,-1.9368,-1.9383,-1.9396,-1.9476,-1.9523,-1.9534,-1.9573,-1.958,-1.9591,-1.9628,-1.9651,-1.9739,-1.9734,-1.9746,-1.9753,-1.9839,-1.984,-1.984,-1.9805,-1.9802,-1.98,0,0,0,0,0,0,-1.9305,-1.9377,-1.9394,-1.9431,-1.9471,-1.9532,-1.9546,-1.9569,-1.9607,-1.9609,-1.9656,-1.9669,-1.9704,-1.9733,-1.9726,-1.9781,-1.9791,-1.9794,-1.9761,-1.9758,-1.9756,-1.9749,-1.9757,0,0,0,0,0,-1.9299,-1.9332,-1.9393,-1.9419,-1.9438,-1.9488,-1.9511,-1.9538,-1.9581,-1.9598,-1.9638,-1.9678,-1.9715,-1.9738,-1.9775,-1.9808,-1.9822,-1.9819,-1.9817,-1.9815,-1.9817,-1.9837,-1.9837,-1.9841,-1.9841,-1.9841,0,0,-1.9287,-1.933,-1.9348,-1.9411,-1.9445,-1.9478,-1.9502,-1.9536,-1.9561,-1.9603,-1.9642,-1.9673,-1.9721,-1.9757,-1.9775,-1.9782,-1.9819,-1.9816,-1.9814,-1.9817,-1.9838,-1.9837,-1.9837,-1.9841,-1.9841,-1.9841,0,0,-1.9283,-1.9318,-1.9345,-1.9378,-1.943,-1.9463,-1.947,-1.9528,-1.955,-1.959,-1.9623,-1.9653,-1.9715,-1.9749,-1.9774,-1.9782,-1.9805,-1.9793,-1.9782,-1.9801,-1.9801,-1.9801,-1.9805,-1.9805,-1.9795,-1.9795,-1.9795,0,-1.9261,-1.9312,-1.9355,-1.9387,-1.9414,-1.9454,-1.9481,-1.9512,-1.9572,-1.959,-1.9597,-1.9677,-1.9712,-1.9757,-1.9759,-1.9778,-1.9787,-1.9787,-1.9798,-1.9798,-1.9799,-1.9803,-1.9804,-1.9793,-1.9793,-1.9793,-1.9793,0,-1.9284,-1.9319,-1.9334,-1.9392,-1.942,-1.945,-1.9497,-1.952,-1.9545,-1.9578,-1.9619,-1.9663,-1.971,-1.9723,-1.9747,-1.9771,-1.9774,-1.9789,-1.9801,-1.9796,-1.9801,-1.9802,-1.979,-1.9791,-1.9791,-1.9792,0,0,-1.9252,-1.9334,-1.9339,-1.9366,-1.9426,-1.9454,-1.9485,-1.9532,-1.9552,-1.9592,-1.962,-1.9672,-1.9687,-1.9715,-1.9744,-1.976,-1.9765,-1.9773,-1.9775,-1.9771,-1.9795,-1.9784,-1.9785,-1.9781,-1.9781,-1.9781,-1.9791,0,-1.9256,-1.9314,-1.9354,-1.9396,-1.943,-1.9469,-1.9496,-1.9536,-1.9567,-1.96,-1.9635,-1.9671,-1.9687,-1.9705,-1.9723,-1.9761,-1.9771,-1.976,-1.9807,-1.9808,-1.9794,-1.9787,-1.9775,-1.9783,-1.9793,-1.9794,-1.9794,0,-1.9268,-1.9308,-1.9354,-1.9411,-1.9427,-1.9451,-1.9497,-1.9528,-1.9574,-1.9596,-1.9628,-1.9657,-1.9692,-1.9701,-1.975,-1.9742,-1.9763,-1.9785,-1.9786,-1.9792,-1.9801,-1.9793,-1.9786,-1.9787,-1.9797,-1.9797,-1.9797,0,-1.924,-1.9306,-1.9342,-1.9365,-1.9432,-1.9448,-1.9477,-1.9523,-1.9549,-1.959,-1.9607,-1.965,-1.9674,-1.9708,-1.9748,-1.9751,-1.9793,-1.9805,-1.9812,-1.9811,-1.9819,-1.9818,-1.9815,-1.9832,-1.9832,-1.9832,-1.9832,0,-1.924,-1.9267,-1.9331,-1.9353,-1.9385,-1.943,-1.946,-1.9492,-1.9533,-1.9562,-1.9599,-1.9625,-1.9677,-1.971,-1.9742,-1.9778,-1.9789,-1.9807,-1.9816,-1.9804,-1.9802,-1.9819,-1.982,-1.9833,-1.9833,-1.9833,-1.9833,0,-1.9215,-1.9259,-1.9301,-1.9362,-1.9378,-1.9399,-1.9451,-1.9474,-1.9508,-1.9545,-1.9556,-1.9609,-1.965,-1.9694,-1.9749,-1.9771,-1.9805,-1.9817,-1.979,-1.9794,-1.9799,-1.9798,-1.9807,-1.9811,-1.9825,-1.9825,-1.9825,0,-1.9212,-1.9234,-1.9297,-1.932,-1.9348,-1.9384,-1.9411,-1.9456,-1.9483,-1.9537,-1.9554,-1.9598,-1.9635,-1.9699,-1.9742,-1.9785,-1.9798,-1.9799,-1.9805,-1.9793,-1.9799,-1.9797,-1.98,-1.9796,-1.9796,-1.9796,-1.9795,0,-1.9203,-1.9224,-1.9261,-1.9306,-1.9337,-1.9375,-1.9414,-1.943,-1.9484,-1.9511,-1.9554,-1.9583,-1.9641,-1.9684,-1.9732,-1.9762,-1.9788,-1.9793,-1.9797,-1.9786,-1.977,-1.9779,-1.9784,-1.9793,-1.9793,-1.9793,-1.9793,-1.9793,-1.9189,-1.921,-1.9258,-1.9299,-1.9333,-1.9369,-1.9394,-1.9432,-1.9468,-1.9519,-1.9544,-1.9586,-1.9633,-1.9701,-1.973,-1.9764,-1.9772,-1.9777,-1.9779,-1.978,-1.9777,-1.9764,-1.9773,-1.9773,-1.9773,-1.9773,-1.9773,0,-1.9181,-1.9215,-1.9252,-1.9305,-1.9338,-1.936,-1.9404,-1.9429,-1.9467,-1.9508,-1.9545,-1.9594,-1.9636,-1.9683,-1.9729,-1.9747,-1.976,-1.9757,-1.9757,-1.9763,-1.9767,-1.9759,-1.9746,-1.9746,-1.9746,-1.9746,-1.9746,-1.9746,-1.9181,-1.9219,-1.9246,-1.9301,-1.9334,-1.9376,-1.94,-1.9434,-1.9467,-1.9521,-1.9556,-1.9587,-1.9631,-1.968,-1.972,-1.9733,-1.9748,-1.9742,-1.9758,-1.9761,-1.9763,-1.9765,-1.9758,-1.9745,-1.9745,-1.9751,-1.9751,-1.9751]}]]